| time (UTC) | temp F | wind direction | speed MPH | gust MPH | rain 1hr in | rain 24hr in | rain mn in | humidity % | barometer mb |
| 20260904170854 | 93 | 207 | 5.0 | 6.0 | 0.00 | 0.00 | 0.00 | 55 | 1016.8 |
| 20260904170349 | 93 | 203 | 4.0 | 4.0 | 0.00 | 0.00 | 0.00 | 56 | 1017.1 |
| 20260904165844 | 92 | 7 | 2.0 | 6.0 | 0.00 | 0.00 | 0.00 | 59 | 1017.0 |
| 20260904165343 | 92 | 121 | 4.0 | 7.0 | 0.00 | 0.00 | 0.00 | 59 | 1017.0 |
| 20260904164839 | 92 | 214 | 1.0 | 3.0 | 0.00 | 0.00 | 0.00 | 58 | 1017.0 |
| 20260904164338 | 93 | 105 | 2.0 | 8.0 | 0.00 | 0.00 | 0.00 | 57 | 1016.9 |
| 20260904163835 | 92 | 86 | 2.0 | 4.0 | 0.00 | 0.00 | 0.00 | 57 | 1017.0 |
| 20260904163334 | 92 | 224 | 8.0 | 10.0 | 0.00 | 0.00 | 0.00 | 57 | 1016.8 |
| 20260904162834 | 91 | 15 | 2.0 | 3.0 | 0.00 | 0.00 | 0.00 | 58 | 1017.0 |
| 20260904162329 | 91 | 183 | 4.0 | 7.0 | 0.00 | 0.00 | 0.00 | 58 | 1017.3 |
| 20260904161825 | 90 | 249 | 0.0 | 6.0 | 0.00 | 0.00 | 0.00 | 61 | 1017.0 |
| 20260904161324 | 90 | 183 | 4.0 | 8.0 | 0.00 | 0.00 | 0.00 | 60 | 1017.1 |
| 20260904160820 | 90 | 209 | 4.0 | 4.0 | 0.00 | 0.00 | 0.00 | 60 | 1017.0 |
| 20260904160320 | 89 | 206 | 4.0 | 9.0 | 0.00 | 0.00 | 0.00 | 64 | 1017.0 |
| 20260904155815 | 89 | 214 | 4.0 | 6.0 | 0.00 | 0.00 | 0.00 | 63 | 1017.1 |
| 20260904155310 | 89 | 238 | 4.0 | 11.0 | 0.00 | 0.00 | 0.00 | 65 | 1017.2 |
| 20260904154808 | 87 | 115 | 3.0 | 6.0 | 0.00 | 0.00 | 0.00 | 67 | 1017.1 |
| 20260904154303 | 86 | 238 | 2.0 | 2.0 | 0.00 | 0.00 | 0.00 | 73 | 1017.1 |
| 20260904153759 | 86 | 188 | 3.0 | 6.0 | 0.00 | 0.00 | 0.00 | 74 | 1017.0 |
| 20260904153254 | 86 | 210 | 5.0 | 8.0 | 0.00 | 0.00 | 0.00 | 74 | 1017.1 |
| 20260904152751 | 86 | 209 | 2.0 | 4.0 | 0.00 | 0.00 | 0.00 | 74 | 1017.3 |
| 20260904152245 | 86 | 170 | 3.0 | 4.0 | 0.00 | 0.00 | 0.00 | 74 | 1017.1 |
| 20260904151740 | 86 | 124 | 2.0 | 7.0 | 0.00 | 0.00 | 0.00 | 74 | 1017.2 |
| 20260904151239 | 86 | 178 | 3.0 | 6.0 | 0.00 | 0.00 | 0.00 | 73 | 1017.1 |
| 20260904150736 | 87 | 145 | 2.0 | 4.0 | 0.00 | 0.00 | 0.00 | 72 | 1017.1 |
| 20260904150230 | 86 | 194 | 4.0 | 8.0 | 0.00 | 0.00 | 0.00 | 74 | 1017.1 |
| 20260904145728 | 86 | 184 | 8.0 | 9.0 | 0.00 | 0.00 | 0.00 | 75 | 1017.1 |
| 20260904145224 | 86 | 178 | 6.0 | 10.0 | 0.00 | 0.00 | 0.00 | 75 | 1017.0 |
| 20260904144720 | 85 | 237 | 2.0 | 6.0 | 0.00 | 0.00 | 0.00 | 78 | 1016.9 |
| 20260904144215 | 85 | 189 | 5.0 | 9.0 | 0.00 | 0.00 | 0.00 | 78 | 1016.9 |
| 20260904143710 | 85 | 178 | 5.0 | 6.0 | 0.00 | 0.00 | 0.00 | 77 | 1017.1 |
| 20260904143208 | 85 | 198 | 2.0 | 2.0 | 0.00 | 0.00 | 0.00 | 80 | 1016.8 |
| 20260904142704 | 83 | 224 | 1.0 | 2.0 | 0.00 | 0.00 | 0.00 | 81 | 1016.9 |
| 20260904142159 | 83 | 196 | 4.0 | 9.0 | 0.00 | 0.00 | 0.00 | 82 | 1016.8 |
| 20260904141653 | 83 | 187 | 4.0 | 4.0 | 0.00 | 0.00 | 0.00 | 83 | 1016.9 |
| 20260904141149 | 83 | 142 | 5.0 | 10.0 | 0.00 | 0.00 | 0.00 | 82 | 1016.8 |
| 20260904140644 | 83 | 165 | 5.0 | 8.0 | 0.00 | 0.00 | 0.00 | 82 | 1016.8 |
| 20260904140139 | 83 | 192 | 6.0 | 7.0 | 0.00 | 0.00 | 0.00 | 84 | 1016.9 |
| 20260904135638 | 82 | 195 | 3.0 | 4.0 | 0.00 | 0.00 | 0.00 | 85 | 1016.8 |
| 20260904135134 | 81 | 212 | 3.0 | 3.0 | 0.00 | 0.00 | 0.00 | 88 | 1016.9 |
| 20260904134630 | 81 | 213 | 2.0 | 3.0 | 0.00 | 0.00 | 0.00 | 90 | 1017.1 |
| 20260904134129 | 80 | 162 | 2.0 | 3.0 | 0.00 | 0.00 | 0.00 | 91 | 1017.1 |
| 20260904133624 | 79 | 256 | 0.0 | 6.0 | 0.00 | 0.00 | 0.00 | 93 | 1016.9 |
| 20260904133120 | 79 | 234 | 0.0 | 3.0 | 0.00 | 0.00 | 0.00 | 93 | 1016.9 |
| 20260904132620 | 79 | 226 | 1.0 | 2.0 | 0.00 | 0.00 | 0.00 | 93 | 1016.7 |
| 20260904132114 | 79 | 232 | 0.0 | 6.0 | 0.00 | 0.00 | 0.00 | 93 | 1016.9 |
| 20260904131614 | 78 | 107 | 2.0 | 4.0 | 0.00 | 0.00 | 0.00 | 93 | 1016.9 |
| 20260904131110 | 78 | 231 | 1.0 | 2.0 | 0.00 | 0.00 | 0.00 | 93 | 1016.6 |
| 20260904130610 | 78 | 114 | 1.0 | 2.0 | 0.00 | 0.00 | 0.00 | 93 | 1016.6 |
| 20260904130110 | 78 | 249 | 0.0 | 1.0 | 0.00 | 0.00 | 0.00 | 93 | 1016.6 |
| 20260904125607 | 78 | 117 | 2.0 | 3.0 | 0.00 | 0.00 | 0.00 | 93 | 1016.4 |
| 20260904125107 | 78 | 128 | 1.0 | 3.0 | 0.00 | 0.00 | 0.00 | 93 | 1016.4 |
| 20260904124602 | 78 | 123 | 0.0 | 1.0 | 0.00 | 0.00 | 0.00 | 94 | 1016.3 |
| 20260904124058 | 78 | 230 | 0.0 | 0.0 | 0.00 | 0.00 | 0.00 | 93 | 1016.1 |
| 20260904123557 | 78 | 101 | 0.0 | 0.0 | 0.00 | 0.00 | 0.00 | 94 | 1015.9 |
| 20260904123053 | 78 | 96 | 0.0 | 0.0 | 0.00 | 0.00 | 0.00 | 94 | 1016.1 |
| 20260904122554 | 78 | 233 | 0.0 | 0.0 | 0.00 | 0.00 | 0.00 | 94 | 1016.0 |
| 20260904122048 | 78 | 231 | 0.0 | 0.0 | 0.00 | 0.00 | 0.00 | 94 | 1015.9 |
| 20260904121544 | 78 | 240 | 0.0 | 0.0 | 0.00 | 0.00 | 0.00 | 94 | 1015.9 |
| 20260904121040 | 78 | 225 | 0.0 | 0.0 | 0.00 | 0.00 | 0.00 | 94 | 1015.8 |
| 20260904120536 | 78 | 212 | 0.0 | 0.0 | 0.00 | 0.00 | 0.00 | 93 | 1015.8 |
| 20260904120031 | 78 | 229 | 0.0 | 0.0 | 0.00 | 0.00 | 0.00 | 93 | 1015.8 |
| 20260904115526 | 77 | 247 | 0.0 | 1.0 | 0.00 | 0.00 | 0.00 | 93 | 1015.9 |
| 20260904115021 | 77 | 235 | 0.0 | 1.0 | 0.00 | 0.00 | 0.00 | 93 | 1015.7 |
| 20260904114516 | 77 | 230 | 0.0 | 0.0 | 0.00 | 0.00 | 0.00 | 93 | 1015.6 |
| 20260904114016 | 77 | 221 | 0.0 | 1.0 | 0.00 | 0.00 | 0.00 | 93 | 1015.6 |
| 20260904113515 | 77 | 214 | 0.0 | 1.0 | 0.00 | 0.00 | 0.00 | 93 | 1015.5 |
| 20260904113009 | 77 | 210 | 1.0 | 1.0 | 0.00 | 0.00 | 0.00 | 93 | 1015.5 |
| 20260904112505 | 77 | 224 | 0.0 | 0.0 | 0.00 | 0.00 | 0.00 | 93 | 1015.6 |
| 20260904112000 | 77 | 233 | 0.0 | 0.0 | 0.00 | 0.00 | 0.00 | 93 | 1015.6 |
| 20260904111456 | 77 | 133 | 0.0 | 0.0 | 0.00 | 0.00 | 0.00 | 93 | 1015.5 |
| 20260904110952 | 77 | 234 | 0.0 | 0.0 | 0.00 | 0.00 | 0.00 | 93 | 1015.5 |
| 20260904110451 | 77 | 230 | 0.0 | 0.0 | 0.00 | 0.00 | 0.00 | 93 | 1015.5 |
| 20260904105946 | 77 | 249 | 0.0 | 1.0 | 0.00 | 0.00 | 0.00 | 93 | 1015.5 |
| 20260904105441 | 77 | 197 | 0.0 | 1.0 | 0.00 | 0.00 | 0.00 | 93 | 1015.5 |
| 20260904104936 | 77 | 235 | 0.0 | 0.0 | 0.00 | 0.00 | 0.00 | 93 | 1015.4 |
| 20260904104436 | 77 | 233 | 0.0 | 0.0 | 0.00 | 0.00 | 0.00 | 93 | 1015.3 |
| 20260904103932 | 77 | 227 | 0.0 | 0.0 | 0.00 | 0.00 | 0.00 | 93 | 1015.3 |
| 20260904103428 | 77 | 231 | 0.0 | 0.0 | 0.00 | 0.00 | 0.00 | 92 | 1015.2 |
| 20260904102924 | 77 | 208 | 0.0 | 0.0 | 0.00 | 0.00 | 0.00 | 92 | 1015.1 |
| 20260904102419 | 77 | 226 | 0.0 | 0.0 | 0.00 | 0.00 | 0.00 | 92 | 1015.1 |
| 20260904101915 | 78 | 220 | 0.0 | 0.0 | 0.00 | 0.00 | 0.00 | 92 | 1015.1 |
| 20260904101411 | 78 | 238 | 0.0 | 0.0 | 0.00 | 0.00 | 0.00 | 92 | 1015.2 |
| 20260904100907 | 78 | 222 | 0.0 | 1.0 | 0.00 | 0.00 | 0.00 | 92 | 1015.1 |
| 20260904100403 | 78 | 206 | 1.0 | 1.0 | 0.00 | 0.00 | 0.00 | 92 | 1015.0 |
| 20260904095902 | 78 | 218 | 0.0 | 2.0 | 0.00 | 0.00 | 0.00 | 92 | 1014.9 |
| 20260904095357 | 78 | 228 | 0.0 | 1.0 | 0.00 | 0.00 | 0.00 | 92 | 1015.2 |
| 20260904094852 | 78 | 229 | 1.0 | 2.0 | 0.00 | 0.00 | 0.00 | 92 | 1015.0 |
| 20260904094347 | 78 | 215 | 0.0 | 1.0 | 0.00 | 0.00 | 0.00 | 91 | 1015.1 |
| 20260904093843 | 78 | 229 | 0.0 | 1.0 | 0.00 | 0.00 | 0.00 | 91 | 1015.3 |
| 20260904093343 | 78 | 231 | 0.0 | 1.0 | 0.00 | 0.00 | 0.00 | 91 | 1015.0 |
| 20260904092838 | 78 | 205 | 0.0 | 1.0 | 0.00 | 0.00 | 0.00 | 91 | 1015.2 |
| 20260904092335 | 78 | 187 | 2.0 | 3.0 | 0.00 | 0.00 | 0.00 | 91 | 1015.2 |
| 20260904091831 | 78 | 219 | 0.0 | 2.0 | 0.00 | 0.00 | 0.00 | 91 | 1015.2 |
| 20260904091326 | 78 | 198 | 1.0 | 2.0 | 0.00 | 0.00 | 0.00 | 91 | 1015.2 |
| 20260904090821 | 78 | 235 | 0.0 | 0.0 | 0.00 | 0.00 | 0.00 | 91 | 1015.0 |
| 20260904090317 | 78 | 208 | 0.0 | 1.0 | 0.00 | 0.00 | 0.00 | 91 | 1015.2 |
| 20260904085812 | 78 | 229 | 1.0 | 2.0 | 0.00 | 0.00 | 0.00 | 91 | 1015.2 |
| 20260904085308 | 78 | 156 | 2.0 | 3.0 | 0.00 | 0.00 | 0.00 | 90 | 1015.1 |
| 20260904084801 | 78 | 230 | 2.0 | 2.0 | 0.00 | 0.00 | 0.00 | 90 | 1015.1 |
| 20260904084257 | 78 | 210 | 1.0 | 3.0 | 0.00 | 0.00 | 0.00 | 90 | 1015.1 |
| 20260904083753 | 78 | 220 | 3.0 | 7.0 | 0.00 | 0.00 | 0.00 | 90 | 1015.0 |
| 20260904083251 | 78 | 149 | 4.0 | 4.0 | 0.00 | 0.00 | 0.00 | 90 | 1014.9 |
| 20260904082750 | 78 | 201 | 3.0 | 6.0 | 0.00 | 0.00 | 0.00 | 90 | 1014.8 |
| 20260904082245 | 78 | 181 | 2.0 | 4.0 | 0.00 | 0.00 | 0.00 | 89 | 1014.8 |
| 20260904081741 | 78 | 184 | 4.0 | 6.0 | 0.00 | 0.00 | 0.00 | 89 | 1014.9 |
| 20260904081237 | 78 | 212 | 4.0 | 6.0 | 0.00 | 0.00 | 0.00 | 90 | 1014.8 |
| 20260904080732 | 78 | 165 | 4.0 | 7.0 | 0.00 | 0.00 | 0.00 | 90 | 1014.9 |
| 20260904080227 | 78 | 165 | 5.0 | 7.0 | 0.00 | 0.00 | 0.00 | 90 | 1015.2 |
| 20260904075725 | 78 | 218 | 2.0 | 6.0 | 0.00 | 0.00 | 0.00 | 90 | 1015.2 |
| 20260904075225 | 78 | 213 | 3.0 | 6.0 | 0.00 | 0.00 | 0.00 | 90 | 1015.0 |
| 20260904074724 | 78 | 186 | 2.0 | 6.0 | 0.00 | 0.00 | 0.00 | 90 | 1015.2 |
| 20260904074218 | 78 | 175 | 2.0 | 4.0 | 0.00 | 0.00 | 0.00 | 90 | 1015.3 |
| 20260904073714 | 78 | 202 | 2.0 | 3.0 | 0.00 | 0.00 | 0.00 | 89 | 1015.2 |
| 20260904073210 | 78 | 161 | 5.0 | 7.0 | 0.00 | 0.00 | 0.00 | 89 | 1015.4 |
| 20260904072705 | 78 | 114 | 1.0 | 6.0 | 0.00 | 0.00 | 0.00 | 89 | 1015.4 |
| 20260904072200 | 78 | 201 | 2.0 | 4.0 | 0.00 | 0.00 | 0.00 | 89 | 1015.1 |
| 20260904071656 | 78 | 213 | 1.0 | 3.0 | 0.00 | 0.00 | 0.00 | 89 | 1015.2 |
| 20260904071151 | 78 | 168 | 1.0 | 2.0 | 0.00 | 0.00 | 0.00 | 89 | 1015.4 |
| 20260904070650 | 78 | 229 | 2.0 | 3.0 | 0.00 | 0.00 | 0.00 | 89 | 1015.5 |
| 20260904070149 | 78 | 181 | 2.0 | 4.0 | 0.00 | 0.00 | 0.00 | 89 | 1015.4 |
| 20260904065644 | 78 | 114 | 2.0 | 3.0 | 0.00 | 0.00 | 0.00 | 89 | 1015.3 |
| 20260904065142 | 78 | 188 | 1.0 | 4.0 | 0.00 | 0.00 | 0.00 | 89 | 1015.5 |
| 20260904064636 | 78 | 194 | 1.0 | 4.0 | 0.00 | 0.00 | 0.00 | 89 | 1015.5 |
| 20260904064136 | 78 | 192 | 1.0 | 6.0 | 0.00 | 0.00 | 0.00 | 88 | 1015.4 |
| 20260904063632 | 78 | 196 | 2.0 | 6.0 | 0.00 | 0.00 | 0.00 | 88 | 1015.3 |
| 20260904063128 | 78 | 169 | 2.0 | 2.0 | 0.00 | 0.00 | 0.00 | 88 | 1015.3 |
| 20260904062624 | 78 | 198 | 1.0 | 3.0 | 0.00 | 0.00 | 0.00 | 88 | 1015.2 |
| 20260904062119 | 78 | 150 | 2.0 | 3.0 | 0.00 | 0.00 | 0.00 | 88 | 1015.4 |
| 20260904061615 | 78 | 52 | 1.0 | 1.0 | 0.00 | 0.00 | 0.00 | 88 | 1015.4 |
| 20260904061111 | 78 | 176 | 1.0 | 1.0 | 0.00 | 0.00 | 0.00 | 88 | 1015.3 |
| 20260904060607 | 78 | 189 | 1.0 | 3.0 | 0.00 | 0.00 | 0.00 | 88 | 1015.5 |
| 20260904060103 | 78 | 200 | 1.0 | 2.0 | 0.00 | 0.00 | 0.00 | 88 | 1015.5 |
| 20260904055557 | 78 | 185 | 2.0 | 3.0 | 0.00 | 0.00 | 0.00 | 88 | 1015.6 |
| 20260904055053 | 78 | 179 | 1.0 | 2.0 | 0.00 | 0.00 | 0.00 | 87 | 1015.5 |
| 20260904054548 | 78 | 233 | 3.0 | 3.0 | 0.00 | 0.00 | 0.00 | 87 | 1015.6 |
| 20260904054044 | 78 | 95 | 1.0 | 3.0 | 0.00 | 0.00 | 0.00 | 87 | 1015.4 |
| 20260904053543 | 78 | 143 | 1.0 | 2.0 | 0.00 | 0.00 | 0.00 | 87 | 1015.4 |
| 20260904053039 | 78 | 219 | 2.0 | 2.0 | 0.00 | 0.00 | 0.00 | 87 | 1015.3 |
| 20260904052535 | 78 | 222 | 4.0 | 4.0 | 0.00 | 0.00 | 0.00 | 87 | 1015.3 |
| 20260904052031 | 78 | 192 | 1.0 | 3.0 | 0.00 | 0.00 | 0.00 | 87 | 1015.3 |
| 20260904051528 | 78 | 185 | 1.0 | 4.0 | 0.00 | 0.00 | 0.00 | 87 | 1015.3 |
| 20260904051026 | 78 | 221 | 2.0 | 4.0 | 0.00 | 0.00 | 0.00 | 87 | 1015.4 |
| 20260904050523 | 78 | 228 | 0.0 | 2.0 | 0.00 | 0.00 | 0.00 | 87 | 1015.2 |
| 20260904050019 | 78 | 182 | 0.0 | 0.0 | 0.00 | 0.00 | 0.00 | 87 | 1015.5 |
| 20260904045514 | 78 | 90 | 3.0 | 7.0 | 0.00 | 0.00 | 0.00 | 87 | 1015.6 |
| 20260904045008 | 78 | 90 | 2.0 | 2.0 | 0.00 | 0.00 | 0.00 | 87 | 1015.4 |
| 20260904044504 | 78 | 206 | 2.0 | 4.0 | 0.00 | 0.00 | 0.00 | 87 | 1015.5 |
| 20260904044000 | 78 | 308 | 1.0 | 4.0 | 0.00 | 0.00 | 0.00 | 87 | 1015.5 |
| 20260904043456 | 78 | 70 | 1.0 | 6.0 | 0.00 | 0.00 | 0.00 | 87 | 1015.5 |
| 20260904042951 | 78 | 235 | 1.0 | 7.0 | 0.00 | 0.00 | 0.00 | 87 | 1015.3 |
| 20260904042448 | 78 | 311 | 2.0 | 3.0 | 0.00 | 0.00 | 0.00 | 87 | 1015.4 |
| 20260904041942 | 78 | 145 | 2.0 | 4.0 | 0.00 | 0.00 | 0.00 | 87 | 1015.5 |
| 20260904041439 | 78 | 92 | 2.0 | 3.0 | 0.00 | 0.00 | 0.00 | 87 | 1015.5 |
| 20260904040935 | 78 | 172 | 0.0 | 4.0 | 0.00 | 0.00 | 0.00 | 87 | 1015.4 |
| 20260904040435 | 78 | 120 | 2.0 | 4.0 | 0.00 | 0.00 | 0.00 | 87 | 1015.5 |
| 20260904035931 | 78 | 184 | 2.0 | 7.0 | 0.00 | 0.00 | 0.00 | 87 | 1015.5 |
| 20260904035427 | 78 | 141 | 4.0 | 6.0 | 0.00 | 0.00 | 0.00 | 87 | 1015.3 |
| 20260904034926 | 78 | 112 | 2.0 | 4.0 | 0.00 | 0.00 | 0.00 | 87 | 1015.3 |
| 20260904034421 | 78 | 127 | 4.0 | 4.0 | 0.00 | 0.00 | 0.00 | 87 | 1015.4 |
| 20260904033917 | 78 | 65 | 3.0 | 4.0 | 0.00 | 0.00 | 0.00 | 87 | 1015.4 |
| 20260904033413 | 78 | 206 | 0.0 | 2.0 | 0.00 | 0.00 | 0.00 | 87 | 1015.4 |
| 20260904032909 | 78 | 191 | 2.0 | 3.0 | 0.00 | 0.00 | 0.00 | 87 | 1015.6 |
| 20260904032403 | 78 | 172 | 2.0 | 9.0 | 0.00 | 0.00 | 0.00 | 87 | 1015.3 |
| 20260904031858 | 78 | 151 | 0.0 | 0.0 | 0.00 | 0.00 | 0.00 | 87 | 1015.4 |
| 20260904031353 | 78 | 129 | 2.0 | 6.0 | 0.00 | 0.00 | 0.00 | 87 | 1015.2 |
| 20260904030849 | 79 | 186 | 2.0 | 3.0 | 0.00 | 0.00 | 0.00 | 87 | 1015.4 |
| 20260904030345 | 79 | 255 | 2.0 | 6.0 | 0.00 | 0.00 | 0.00 | 87 | 1015.3 |
| 20260904025840 | 79 | 90 | 2.0 | 4.0 | 0.00 | 0.00 | 0.00 | 87 | 1015.4 |
| 20260904025336 | 79 | 113 | 2.0 | 7.0 | 0.00 | 0.00 | 0.00 | 87 | 1015.2 |
| 20260904024835 | 79 | 223 | 1.0 | 2.0 | 0.00 | 0.00 | 0.00 | 87 | 1015.1 |
| 20260904024331 | 79 | 233 | 1.0 | 3.0 | 0.00 | 0.00 | 0.00 | 87 | 1015.1 |
| 20260904023827 | 79 | 213 | 3.0 | 4.0 | 0.00 | 0.00 | 0.00 | 87 | 1015.0 |
| 20260904023323 | 79 | 138 | 1.0 | 2.0 | 0.00 | 0.00 | 0.00 | 87 | 1014.9 |
| 20260904022822 | 79 | 216 | 2.0 | 3.0 | 0.00 | 0.00 | 0.00 | 86 | 1014.8 |
| 20260904022319 | 79 | 220 | 0.0 | 3.0 | 0.00 | 0.00 | 0.00 | 86 | 1014.7 |
| 20260904021816 | 80 | 126 | 4.0 | 6.0 | 0.00 | 0.00 | 0.00 | 86 | 1014.8 |
| 20260904021315 | 80 | 64 | 2.0 | 4.0 | 0.00 | 0.00 | 0.00 | 86 | 1014.5 |
| 20260904020811 | 80 | 125 | 2.0 | 3.0 | 0.00 | 0.00 | 0.00 | 86 | 1014.4 |
| 20260904020306 | 80 | 85 | 1.0 | 3.0 | 0.00 | 0.00 | 0.00 | 86 | 1014.2 |
| 20260904015804 | 80 | 136 | 1.0 | 3.0 | 0.00 | 0.00 | 0.00 | 86 | 1014.2 |
| 20260904015300 | 80 | 252 | 2.0 | 3.0 | 0.00 | 0.00 | 0.00 | 85 | 1014.2 |
| 20260904014758 | 80 | 113 | 0.0 | 3.0 | 0.00 | 0.00 | 0.00 | 85 | 1014.1 |
| 20260904014254 | 80 | 219 | 1.0 | 6.0 | 0.00 | 0.00 | 0.00 | 85 | 1014.0 |
| 20260904013749 | 80 | 86 | 3.0 | 3.0 | 0.00 | 0.00 | 0.00 | 84 | 1014.0 |
| 20260904013245 | 80 | 78 | 1.0 | 4.0 | 0.00 | 0.00 | 0.00 | 84 | 1014.0 |
| 20260904012741 | 81 | 167 | 1.0 | 2.0 | 0.00 | 0.00 | 0.00 | 83 | 1014.1 |
| 20260904012241 | 81 | 70 | 2.0 | 4.0 | 0.00 | 0.00 | 0.00 | 83 | 1014.0 |
| 20260904011740 | 81 | 150 | 1.0 | 2.0 | 0.00 | 0.00 | 0.00 | 83 | 1013.9 |
| 20260904011235 | 81 | 144 | 4.0 | 7.0 | 0.00 | 0.00 | 0.00 | 82 | 1013.7 |
| 20260904010730 | 81 | 200 | 2.0 | 4.0 | 0.00 | 0.00 | 0.00 | 82 | 1013.6 |
| 20260904010227 | 81 | 167 | 0.0 | 3.0 | 0.00 | 0.00 | 0.00 | 81 | 1013.7 |
| 20260904005722 | 82 | 48 | 2.0 | 4.0 | 0.00 | 0.00 | 0.00 | 81 | 1013.7 |
| 20260904005218 | 82 | 202 | 2.0 | 3.0 | 0.00 | 0.00 | 0.00 | 80 | 1013.7 |
| 20260904004718 | 82 | 136 | 1.0 | 7.0 | 0.00 | 0.00 | 0.00 | 80 | 1013.6 |
| 20260904004213 | 82 | 215 | 2.0 | 7.0 | 0.00 | 0.00 | 0.00 | 80 | 1013.9 |
| 20260904003702 | 82 | 158 | 4.0 | 4.0 | 0.00 | 0.00 | 0.00 | 79 | 1013.8 |
| 20260904003159 | 82 | 198 | 2.0 | 8.0 | 0.00 | 0.00 | 0.00 | 79 | 1013.9 |
| 20260904002654 | 82 | 235 | 2.0 | 10.0 | 0.00 | 0.00 | 0.00 | 78 | 1013.8 |
| 20260904002149 | 83 | 187 | 7.0 | 11.0 | 0.00 | 0.00 | 0.00 | 78 | 1013.8 |
| 20260904001644 | 83 | 145 | 2.0 | 10.0 | 0.00 | 0.00 | 0.00 | 78 | 1013.8 |
| 20260904001143 | 83 | 137 | 2.0 | 7.0 | 0.00 | 0.00 | 0.00 | 78 | 1013.7 |
| 20260904000639 | 83 | 175 | 5.0 | 10.0 | 0.00 | 0.00 | 0.00 | 77 | 1013.8 |
| 20260904000134 | 83 | 174 | 5.0 | 8.0 | 0.00 | 0.00 | 0.00 | 77 | 1013.9 |
| 20260903235633 | 84 | 135 | 4.0 | 11.0 | 0.00 | 0.00 | 0.00 | 76 | 1013.8 |
| 20260903235130 | 83 | 203 | 4.0 | 4.0 | 0.00 | 0.00 | 0.00 | 77 | 1013.8 |
| 20260903234624 | 84 | 122 | 9.0 | 11.0 | 0.00 | 0.00 | 0.00 | 76 | 1013.7 |
| 20260903234120 | 84 | 104 | 6.0 | 13.0 | 0.00 | 0.00 | 0.00 | 75 | 1013.7 |
| 20260903233616 | 84 | 106 | 4.0 | 9.0 | 0.00 | 0.00 | 0.00 | 74 | 1013.8 |
| 20260903233112 | 85 | 215 | 5.0 | 10.0 | 0.00 | 0.00 | 0.00 | 74 | 1013.7 |
| 20260903232606 | 85 | 146 | 6.0 | 11.0 | 0.00 | 0.00 | 0.00 | 72 | 1013.7 |
| 20260903232102 | 85 | 180 | 6.0 | 9.0 | 0.00 | 0.00 | 0.00 | 72 | 1013.6 |
| 20260903231557 | 85 | 156 | 3.0 | 11.0 | 0.00 | 0.00 | 0.00 | 71 | 1013.6 |
| 20260903231056 | 85 | 171 | 5.0 | 10.0 | 0.00 | 0.00 | 0.00 | 71 | 1013.6 |
| 20260903230553 | 84 | 101 | 2.0 | 10.0 | 0.00 | 0.00 | 0.00 | 71 | 1013.5 |
| 20260903230051 | 85 | 215 | 9.0 | 11.0 | 0.00 | 0.00 | 0.00 | 70 | 1013.7 |
| 20260903225549 | 85 | 180 | 8.0 | 9.0 | 0.00 | 0.00 | 0.00 | 70 | 1013.6 |
| 20260903225045 | 85 | 183 | 3.0 | 6.0 | 0.00 | 0.00 | 0.00 | 70 | 1013.8 |
| 20260903224541 | 85 | 95 | 3.0 | 8.0 | 0.00 | 0.00 | 0.00 | 70 | 1013.8 |
| 20260903224037 | 85 | 217 | 7.0 | 10.0 | 0.00 | 0.00 | 0.00 | 69 | 1013.7 |
| 20260903223536 | 85 | 111 | 4.0 | 9.0 | 0.00 | 0.00 | 0.00 | 69 | 1013.6 |
| 20260903223036 | 85 | 131 | 4.0 | 7.0 | 0.00 | 0.00 | 0.00 | 70 | 1013.8 |
| 20260903222531 | 85 | 114 | 4.0 | 9.0 | 0.00 | 0.00 | 0.00 | 69 | 1013.8 |
| 20260903222029 | 85 | 165 | 2.0 | 6.0 | 0.00 | 0.00 | 0.00 | 69 | 1013.9 |
| 20260903221525 | 85 | 102 | 2.0 | 8.0 | 0.00 | 0.00 | 0.00 | 68 | 1013.8 |
| 20260903221022 | 86 | 222 | 1.0 | 3.0 | 0.00 | 0.00 | 0.00 | 68 | 1013.6 |
| 20260903220522 | 86 | 248 | 2.0 | 8.0 | 0.00 | 0.00 | 0.00 | 67 | 1013.6 |
| 20260903220021 | 86 | 164 | 3.0 | 4.0 | 0.00 | 0.00 | 0.00 | 66 | 1013.7 |
| 20260903215516 | 86 | 206 | 3.0 | 10.0 | 0.00 | 0.00 | 0.00 | 67 | 1013.7 |
| 20260903215015 | 86 | 177 | 6.0 | 14.0 | 0.00 | 0.00 | 0.00 | 67 | 1013.6 |
| 20260903214516 | 87 | 125 | 5.0 | 9.0 | 0.00 | 0.00 | 0.00 | 67 | 1013.5 |
| 20260903214015 | 87 | 118 | 5.0 | 8.0 | 0.00 | 0.00 | 0.00 | 66 | 1013.8 |
| 20260903213511 | 88 | 129 | 6.0 | 11.0 | 0.00 | 0.00 | 0.00 | 65 | 1013.7 |
| 20260903213007 | 87 | 187 | 4.0 | 9.0 | 0.00 | 0.00 | 0.00 | 66 | 1013.9 |
| 20260903212503 | 86 | 138 | 7.0 | 10.0 | 0.00 | 0.00 | 0.00 | 69 | 1013.9 |
| 20260903212002 | 87 | 78 | 5.0 | 11.0 | 0.00 | 0.00 | 0.00 | 69 | 1013.9 |
| 20260903211458 | 88 | 197 | 3.0 | 9.0 | 0.00 | 0.00 | 0.00 | 69 | 1013.7 |
| 20260903210954 | 88 | 188 | 3.0 | 7.0 | 0.00 | 0.00 | 0.00 | 69 | 1014.0 |
| 20260903210454 | 87 | 129 | 6.0 | 9.0 | 0.00 | 0.00 | 0.00 | 71 | 1014.1 |
| 20260903205949 | 87 | 137 | 6.0 | 9.0 | 0.00 | 0.00 | 0.00 | 72 | 1014.2 |
| 20260903205444 | 87 | 85 | 6.0 | 10.0 | 0.00 | 0.00 | 0.00 | 71 | 1014.0 |
| 20260903204938 | 87 | 186 | 1.0 | 6.0 | 0.00 | 0.00 | 0.00 | 71 | 1014.1 |
| 20260903204434 | 87 | 216 | 3.0 | 7.0 | 0.00 | 0.00 | 0.00 | 70 | 1014.1 |
| 20260903203930 | 87 | 290 | 1.0 | 6.0 | 0.00 | 0.00 | 0.00 | 70 | 1013.9 |
| 20260903203425 | 88 | 219 | 4.0 | 10.0 | 0.00 | 0.00 | 0.00 | 69 | 1014.1 |
| 20260903202925 | 87 | 147 | 0.0 | 4.0 | 0.00 | 0.00 | 0.00 | 71 | 1014.2 |
| 20260903202421 | 87 | 175 | 1.0 | 6.0 | 0.00 | 0.00 | 0.00 | 71 | 1014.4 |
| 20260903201921 | 87 | 137 | 2.0 | 4.0 | 0.00 | 0.00 | 0.00 | 70 | 1014.6 |
| 20260903201416 | 88 | 106 | 2.0 | 8.0 | 0.00 | 0.00 | 0.00 | 69 | 1014.5 |
| 20260903200915 | 89 | 163 | 6.0 | 8.0 | 0.00 | 0.00 | 0.00 | 66 | 1014.3 |
| 20260903200410 | 88 | 191 | 3.0 | 4.0 | 0.00 | 0.00 | 0.00 | 69 | 1014.4 |
| 20260903195905 | 88 | 150 | 2.0 | 6.0 | 0.00 | 0.00 | 0.00 | 69 | 1014.6 |
| 20260903195402 | 88 | 85 | 1.0 | 4.0 | 0.00 | 0.00 | 0.00 | 69 | 1014.5 |
| 20260903194855 | 87 | 214 | 8.0 | 9.0 | 0.00 | 0.00 | 0.00 | 70 | 1014.7 |
| 20260903194351 | 85 | 133 | 2.0 | 7.0 | 0.00 | 0.00 | 0.00 | 72 | 1014.7 |
| 20260903193847 | 85 | 213 | 6.0 | 8.0 | 0.00 | 0.00 | 0.00 | 73 | 1014.7 |
| 20260903193343 | 85 | 67 | 6.0 | 9.0 | 0.00 | 0.00 | 0.00 | 73 | 1014.9 |
| 20260903192838 | 85 | 191 | 4.0 | 13.0 | 0.00 | 0.00 | 0.00 | 73 | 1015.0 |
| 20260903192334 | 86 | 36 | 4.0 | 8.0 | 0.00 | 0.00 | 0.00 | 72 | 1014.8 |
| 20260903191830 | 85 | 192 | 2.0 | 6.0 | 0.00 | 0.00 | 0.00 | 74 | 1014.9 |
| 20260903191326 | 85 | 159 | 5.0 | 10.0 | 0.00 | 0.00 | 0.00 | 75 | 1015.0 |
| 20260903190825 | 84 | 181 | 5.0 | 10.0 | 0.00 | 0.00 | 0.00 | 77 | 1015.4 |
| 20260903190320 | 84 | 148 | 2.0 | 6.0 | 0.00 | 0.00 | 0.00 | 79 | 1015.5 |
| 20260903185819 | 83 | 250 | 0.0 | 6.0 | 0.00 | 0.00 | 0.00 | 80 | 1015.6 |
| 20260903185315 | 83 | 41 | 2.0 | 7.0 | 0.00 | 0.00 | 0.00 | 82 | 1015.5 |
| 20260903184811 | 82 | 196 | 6.0 | 8.0 | 0.00 | 0.00 | 0.00 | 82 | 1015.8 |
| 20260903184307 | 82 | 182 | 4.0 | 7.0 | 0.00 | 0.00 | 0.00 | 83 | 1016.0 |
| 20260903183802 | 81 | 173 | 4.0 | 7.0 | 0.00 | 0.00 | 0.00 | 84 | 1016.1 |
| 20260903183256 | 81 | 232 | 6.0 | 13.0 | 0.00 | 0.00 | 0.00 | 84 | 1016.0 |
| 20260903182755 | 81 | 169 | 2.0 | 7.0 | 0.00 | 0.00 | 0.00 | 85 | 1016.1 |
| 20260903182250 | 81 | 185 | 4.0 | 8.0 | 0.00 | 0.00 | 0.00 | 85 | 1016.0 |
| 20260903181749 | 81 | 211 | 3.0 | 6.0 | 0.00 | 0.00 | 0.00 | 86 | 1016.3 |
| 20260903181244 | 81 | 102 | 2.0 | 9.0 | 0.00 | 0.00 | 0.00 | 86 | 1016.4 |
| 20260903180739 | 81 | 207 | 5.0 | 7.0 | 0.00 | 0.00 | 0.00 | 86 | 1016.5 |
| 20260903180239 | 81 | 88 | 2.0 | 7.0 | 0.00 | 0.00 | 0.00 | 87 | 1016.4 |
| 20260903175738 | 81 | 163 | 6.0 | 9.0 | 0.00 | 0.00 | 0.00 | 87 | 1016.5 |
| 20260903175238 | 81 | 158 | 1.0 | 8.0 | 0.00 | 0.00 | 0.00 | 88 | 1016.5 |
| 20260903174737 | 81 | 109 | 3.0 | 6.0 | 0.00 | 0.00 | 0.00 | 88 | 1016.7 |
| 20260903174233 | 80 | 190 | 2.0 | 7.0 | 0.00 | 0.00 | 0.00 | 88 | 1017.0 |
| 20260903173728 | 80 | 137 | 2.0 | 6.0 | 0.00 | 0.00 | 0.00 | 89 | 1017.0 |
| 20260903173224 | 80 | 123 | 4.0 | 6.0 | 0.00 | 0.00 | 0.00 | 89 | 1017.1 |
| 20260903172723 | 80 | 85 | 2.0 | 7.0 | 0.00 | 0.00 | 0.00 | 89 | 1017.1 |
| 20260903172218 | 80 | 122 | 4.0 | 7.0 | 0.00 | 0.00 | 0.00 | 89 | 1017.3 |
| 20260903171714 | 80 | 146 | 4.0 | 10.0 | 0.00 | 0.00 | 0.00 | 89 | 1017.0 |